Tracking 17155 objects as of 28-July-2015
HD Live streaming from Space Station

PSLV DEB

Track PSLV DEB now!
10-day predictions
PSLV DEB is classified as:


NORAD ID: 27114
Int'l Code: 2001-049BJ
Perigee: 476.2 km
Apogee: 495.1 km
Inclination: 97.8 °
Period: 94.2 minutes
Semi major axis: 6856 km
RCS: 0.0473 m2 (small)
Launch date: October 22, 2001
Source: India (IND)

Note: This is SATELLITE DEBRIS
Your satellite tracking list
Your tracking list is empty





NASA's NSSDC Master Catalog

Two Line Element Set (TLE):
1 27114U 01049BJ  15209.45182692  .00013637  00000-0  48385-3 0  9994
2 27114 097.8205 188.9523 0013767 162.4427 197.7291 15.29106111738926

Source of the keplerian elements: AFSPC

N2YO: 302